Location: Newark
(41.0400°S, 62.7845°W)
Time: 00:35:54
(UTC+00:00)

Transit 2A Rocket - Visible Passes

Search period start: 28 November 2021 00:00
Search period end: 08 December 2021 00:00
Orbit: 584 x 918 km, 66.7° (Epoch: 27 November)

Date Brightness Start Highest point End Pass type
(mag) Time Alt. Az. Time Alt. Az. Time Alt. Az.
28 Nov 5.0 01:26:43 10° NW 01:31:29 65° WSW 01:35:57 10° SSE visible
29 Nov 4.6 00:44:03 10° NNW 00:48:50 68° ENE 00:53:19 10° SE visible
29 Nov 7.5 02:28:56 10° W 02:31:46 16° SW 02:34:30 10° S visible
30 Nov 5.2 00:01:52 10° N 00:06:16 36° ENE 00:10:25 10° SE visible
30 Nov 6.9 01:44:55 10° WNW 01:48:49 26° SW 01:52:35 10° S visible
01 Dec 5.9 01:01:29 10° NW 01:06:01 44° SW 01:10:18 10° SSE visible
01 Dec 7.8 08:02:53 10° S 08:05:42 16° SE 08:08:35 10° E visible
02 Dec 4.8 00:18:32 10° NNW 00:23:19 81° WSW 00:27:48 10° SSE visible
02 Dec 8.0 02:04:58 10° WSW 02:06:30 11° SW 02:08:00 10° SSW visible
03 Dec 7.6 01:20:14 10° W 01:23:29 19° SW 01:26:38 10° S visible
04 Dec 6.8 00:36:27 10° WNW 00:40:35 31° SW 00:44:33 10° S visible
04 Dec 7.5 07:36:52 10° S 07:40:22 23° SE 07:44:00 10° ENE visible
05 Dec 8.1 06:55:05 10° SSE 06:57:24 14° SE 06:59:46 10° ESE visible
06 Dec 8.1 00:55:54 10° WSW 00:58:11 14° SW 01:00:26 10° SSW visible
06 Dec 5.5 07:53:23 10° SSW 07:57:45 56° ESE 08:02:22 10° NE visible
07 Dec 7.6 00:11:37 10° W 00:15:13 22° SW 00:18:41 10° S visible
07 Dec 6.7 07:11:01 10° S 07:14:59 31° SE 07:19:09 10° ENE visible
